GEFSMA_prec_meanprec_006.txt.gz
QPF
0.00 0.03 0.07 0.11 0.08 0.03 0.03 0.02 0.04 0.06 0.07 0.10 0.08 0.07 0.08 0.08 0.12 0.20 0.21 0.19 0.14 0.12 0.13 0.15 0.21 0.19 0.17 0.24 0.32 0.32 0.29 0.29 0.28 0.14 0.05 0.02 0.01 0.00 0.00 0.00 0.00 0.00 0.00
0.01 0.04 0.07 0.11 0.09 0.07 0.08 0.08 0.10 0.14 0.16 0.12 0.07 0.06 0.05 0.04 0.05 0.07 0.10 0.12 0.10 0.11 0.11 0.10 0.13 0.15 0.12 0.16 0.29 0.33 0.29 0.27 0.32 0.20 0.08 0.04 0.02 0.01 0.00 0.00 0.00 0.00 0.00
0.03 0.09 0.08 0.08 0.11 0.12 0.10 0.16 0.15 0.10 0.07 0.04 0.02 0.03 0.02 0.02 0.01 0.01 0.01 0.01 0.02 0.03 0.04 0.04 0.05 0.10 0.08 0.10 0.18 0.25 0.28 0.25 0.25 0.21 0.11 0.08 0.06 0.03 0.01 0.00 0.00 0.00 0.00
0.04 0.12 0.09 0.08 0.12 0.12 0.15 0.18 0.12 0.06 0.03 0.02 0.02 0.02 0.01 0.01 0.00 0.00 0.00 0.01 0.01 0.00 0.00 0.00 0.01 0.03 0.04 0.05 0.07 0.15 0.25 0.25 0.19 0.18 0.13 0.15 0.15 0.12 0.07 0.01 0.00 0.00 0.00
0.03 0.08 0.09 0.10 0.10 0.13 0.15 0.10 0.11 0.07 0.01 0.00 0.00 0.02 0.01 0.01 0.00 0.00 0.00 0.00 0.00 0.00 0.00 0.00 0.01 0.03 0.04 0.07 0.09 0.15 0.23 0.33 0.34 0.34 0.40 0.45 0.47 0.38 0.22 0.07 0.01 0.00 0.00
0.04 0.11 0.10 0.10 0.07 0.12 0.15 0.10 0.11 0.10 0.05 0.01 0.00 0.00 0.00 0.00 0.00 0.00 0.00 0.00 0.00 0.00 0.00 0.01 0.02 0.02 0.02 0.05 0.07 0.07 0.15 0.39 0.50 0.81 1.10 1.03 0.91 0.67 0.36 0.14 0.03 0.00 0.00
0.09 0.16 0.11 0.10 0.08 0.12 0.12 0.06 0.07 0.10 0.10 0.02 0.00 0.00 0.00 0.00 0.00 0.00 0.00 0.00 0.00 0.00 0.00 0.01 0.01 0.02 0.01 0.01 0.03 0.03 0.08 0.28 0.35 0.64 1.08 1.32 1.25 0.79 0.35 0.13 0.03 0.00 0.00
0.11 0.14 0.16 0.12 0.10 0.13 0.17 0.17 0.14 0.13 0.11 0.04 0.01 0.00 0.00 0.00 0.00 0.00 0.00 0.00 0.00 0.00 0.00 0.00 0.00 0.00 0.01 0.01 0.02 0.02 0.04 0.10 0.16 0.27 0.53 0.96 0.98 0.55 0.21 0.07 0.01 0.00 0.00
0.05 0.10 0.16 0.17 0.14 0.16 0.27 0.38 0.30 0.22 0.16 0.11 0.06 0.03 0.01 0.01 0.00 0.00 0.00 0.00 0.00 0.00 0.00 0.00 0.00 0.00 0.00 0.01 0.03 0.05 0.02 0.04 0.16 0.23 0.30 0.50 0.55 0.34 0.14 0.03 0.00 0.00 0.00
0.04 0.11 0.17 0.17 0.20 0.26 0.35 0.40 0.32 0.28 0.22 0.18 0.13 0.08 0.04 0.02 0.01 0.00 0.00 0.00 0.00 0.00 0.00 0.00 0.00 0.00 0.00 0.00 0.01 0.02 0.01 0.03 0.18 0.19 0.23 0.29 0.28 0.21 0.10 0.02 0.00 0.00 0.00
0.09 0.14 0.17 0.18 0.20 0.24 0.31 0.32 0.35 0.30 0.24 0.20 0.14 0.08 0.05 0.04 0.02 0.01 0.00 0.00 0.00 0.00 0.00 0.00 0.00 0.00 0.00 0.00 0.02 0.02 0.00 0.03 0.20 0.17 0.11 0.10 0.09 0.07 0.03 0.01 0.00 0.00 0.00
0.14 0.18 0.18 0.18 0.18 0.22 0.29 0.29 0.26 0.23 0.21 0.18 0.12 0.05 0.04 0.03 0.02 0.02 0.01 0.01 0.01 0.00 0.00 0.00 0.00 0.00 0.00 0.01 0.02 0.01 0.02 0.04 0.15 0.18 0.07 0.03 0.02 0.01 0.01 0.00 0.00 0.00 0.00
0.11 0.12 0.16 0.15 0.14 0.17 0.25 0.25 0.21 0.17 0.13 0.11 0.06 0.02 0.01 0.01 0.01 0.01 0.01 0.00 0.01 0.00 0.01 0.00 0.00 0.00 0.00 0.02 0.05 0.03 0.04 0.03 0.05 0.05 0.03 0.01 0.01 0.00 0.00 0.00 0.00 0.00 0.00
0.11 0.08 0.07 0.08 0.09 0.10 0.14 0.19 0.20 0.17 0.12 0.09 0.03 0.02 0.01 0.01 0.01 0.01 0.02 0.04 0.05 0.04 0.03 0.04 0.02 0.00 0.00 0.01 0.03 0.05 0.04 0.01 0.01 0.01 0.01 0.00 0.00 0.00 0.00 0.00 0.00 0.00 0.00
0.18 0.11 0.07 0.05 0.05 0.05 0.09 0.12 0.15 0.11 0.09 0.07 0.04 0.04 0.03 0.03 0.04 0.08 0.12 0.11 0.13 0.13 0.14 0.15 0.15 0.04 0.00 0.01 0.01 0.05 0.03 0.01 0.01 0.00 0.00 0.00 0.00 0.00 0.00 0.00 0.00 0.00 0.00
0.24 0.16 0.10 0.07 0.04 0.04 0.04 0.03 0.05 0.04 0.02 0.03 0.05 0.06 0.10 0.12 0.13 0.16 0.20 0.22 0.22 0.24 0.21 0.20 0.22 0.12 0.02 0.00 0.01 0.01 0.01 0.00 0.00 0.01 0.00 0.00 0.00 0.00 0.00 0.00 0.00 0.00 0.00
0.15 0.11 0.07 0.03 0.01 0.00 0.00 0.00 0.01 0.01 0.00 0.01 0.02 0.05 0.13 0.19 0.20 0.25 0.27 0.24 0.25 0.30 0.24 0.26 0.27 0.17 0.07 0.01 0.01 0.01 0.01 0.02 0.02 0.01 0.01 0.00 0.00 0.00 0.00 0.00 0.00 0.00 0.00
0.03 0.02 0.01 0.00 0.00 0.00 0.00 0.00 0.00 0.00 0.01 0.01 0.01 0.03 0.07 0.12 0.17 0.23 0.27 0.26 0.25 0.28 0.25 0.31 0.34 0.28 0.20 0.07 0.03 0.02 0.01 0.01 0.01 0.01 0.00 0.00 0.00 0.00 0.00 0.00 0.00 0.00 0.00
0.00 0.00 0.00 0.00 0.00 0.00 0.00 0.00 0.00 0.00 0.01 0.01 0.01 0.02 0.04 0.08 0.13 0.15 0.19 0.22 0.25 0.31 0.28 0.34 0.41 0.34 0.28 0.16 0.10 0.05 0.03 0.03 0.01 0.00 0.00 0.00 0.00 0.00 0.01 0.01 0.00 0.00 0.00
0.00 0.00 0.00 0.00 0.00 0.00 0.00 0.00 0.00 0.01 0.01 0.01 0.01 0.02 0.03 0.06 0.10 0.13 0.15 0.15 0.17 0.20 0.19 0.26 0.37 0.34 0.32 0.22 0.21 0.13 0.07 0.06 0.04 0.02 0.01 0.00 0.00 0.01 0.01 0.02 0.01 0.00 0.00
0.00 0.00 0.00 0.00 0.00 0.00 0.00 0.01 0.01 0.01 0.01 0.01 0.01 0.02 0.04 0.07 0.08 0.09 0.11 0.14 0.14 0.19 0.19 0.18 0.24 0.30 0.29 0.24 0.21 0.19 0.15 0.12 0.12 0.06 0.06 0.04 0.04 0.05 0.03 0.03 0.01 0.01 0.01
0.00 0.00 0.00 0.00 0.00 0.00 0.00 0.00 0.01 0.01 0.01 0.01 0.01 0.01 0.02 0.04 0.08 0.11 0.14 0.14 0.11 0.14 0.17 0.18 0.18 0.19 0.17 0.16 0.17 0.18 0.19 0.17 0.18 0.11 0.11 0.10 0.08 0.11 0.07 0.05 0.04 0.04 0.03
0.00 0.00 0.00 0.00 0.00 0.00 0.00 0.00 0.00 0.00 0.00 0.00 0.00 0.01 0.01 0.02 0.05 0.07 0.06 0.05 0.06 0.07 0.09 0.12 0.15 0.22 0.27 0.22 0.21 0.21 0.21 0.21 0.19 0.09 0.11 0.18 0.13 0.15 0.06 0.13 0.14 0.10 0.05
0.00 0.00 0.00 0.00 0.00 0.00 0.00 0.00 0.00 0.00 0.00 0.00 0.00 0.00 0.00 0.00 0.00 0.00 0.00 0.00 0.00 0.01 0.01 0.01 0.03 0.13 0.42 0.52 0.40 0.32 0.24 0.15 0.11 0.07 0.06 0.17 0.12 0.12 0.04 0.04 0.06 0.04 0.02
0.00 0.00 0.00 0.00 0.00 0.00 0.00 0.00 0.00 0.00 0.00 0.00 0.00 0.00 0.00 0.00 0.00 0.00 0.00 0.00 0.00 0.00 0.00 0.00 0.01 0.03 0.11 0.28 0.41 0.40 0.35 0.28 0.26 0.18 0.08 0.14 0.13 0.09 0.08 0.04 0.01 0.01 0.00
0.00 0.00 0.00 0.00 0.00 0.00 0.00 0.00 0.00 0.00 0.00 0.00 0.00 0.00 0.00 0.00 0.00 0.00 0.00 0.00 0.00 0.00 0.00 0.00 0.00 0.00 0.00 0.01 0.03 0.06 0.10 0.15 0.18 0.15 0.06 0.08 0.12 0.13 0.13 0.07 0.01 0.00 0.00

GEFSMA_prec_meanprec_012.txt.gz
QPF
0.00 0.02 0.04 0.06 0.02 0.04 0.07 0.05 0.04 0.05 0.09 0.13 0.08 0.04 0.03 0.02 0.02 0.06 0.13 0.04 0.00 0.00 0.00 0.00 0.01 0.02 0.02 0.04 0.07 0.10 0.11 0.11 0.10 0.10 0.08 0.05 0.04 0.02 0.01 0.00 0.00 0.00 0.00
0.01 0.04 0.07 0.06 0.02 0.03 0.07 0.10 0.08 0.15 0.14 0.11 0.06 0.05 0.03 0.03 0.02 0.04 0.08 0.08 0.03 0.00 0.00 0.00 0.00 0.00 0.00 0.01 0.03 0.06 0.08 0.09 0.09 0.07 0.07 0.07 0.06 0.05 0.02 0.01 0.00 0.00 0.00
0.01 0.04 0.07 0.07 0.06 0.04 0.10 0.15 0.12 0.14 0.13 0.08 0.04 0.03 0.03 0.03 0.01 0.01 0.01 0.02 0.04 0.03 0.00 0.00 0.00 0.00 0.00 0.00 0.00 0.02 0.06 0.09 0.09 0.07 0.06 0.05 0.07 0.08 0.06 0.04 0.01 0.00 0.00
0.01 0.04 0.05 0.07 0.09 0.06 0.15 0.19 0.16 0.14 0.11 0.06 0.04 0.02 0.01 0.01 0.00 0.00 0.00 0.00 0.01 0.02 0.02 0.01 0.00 0.00 0.00 0.00 0.00 0.01 0.05 0.10 0.10 0.07 0.05 0.05 0.07 0.10 0.11 0.08 0.04 0.01 0.00
0.01 0.04 0.06 0.09 0.07 0.11 0.11 0.08 0.18 0.11 0.12 0.10 0.02 0.05 0.00 0.00 0.00 0.00 0.00 0.00 0.00 0.00 0.01 0.01 0.02 0.01 0.01 0.00 0.00 0.01 0.03 0.09 0.11 0.09 0.09 0.08 0.08 0.11 0.14 0.15 0.10 0.05 0.01
0.03 0.06 0.06 0.06 0.06 0.14 0.14 0.10 0.14 0.15 0.14 0.10 0.02 0.03 0.01 0.00 0.00 0.00 0.00 0.00 0.00 0.00 0.00 0.01 0.02 0.02 0.00 0.00 0.00 0.00 0.00 0.03 0.10 0.12 0.12 0.11 0.13 0.17 0.22 0.24 0.18 0.10 0.03
0.04 0.07 0.05 0.11 0.10 0.13 0.15 0.13 0.24 0.27 0.20 0.13 0.08 0.07 0.02 0.00 0.00 0.00 0.00 0.00 0.00 0.00 0.00 0.00 0.00 0.00 0.00 0.00 0.01 0.00 0.00 0.01 0.07 0.11 0.13 0.16 0.25 0.37 0.41 0.37 0.28 0.15 0.06
0.02 0.04 0.07 0.09 0.14 0.20 0.22 0.24 0.29 0.21 0.15 0.14 0.15 0.15 0.08 0.08 0.04 0.01 0.00 0.00 0.00 0.00 0.00 0.00 0.00 0.00 0.00 0.00 0.01 0.00 0.00 0.00 0.02 0.07 0.13 0.27 0.49 0.59 0.52 0.47 0.36 0.21 0.10
0.02 0.05 0.10 0.13 0.22 0.25 0.28 0.27 0.22 0.19 0.18 0.19 0.17 0.19 0.18 0.17 0.10 0.01 0.00 0.00 0.00 0.00 0.00 0.00 0.00 0.00 0.00 0.00 0.01 0.01 0.00 0.00 0.00 0.03 0.13 0.33 0.61 0.66 0.57 0.46 0.33 0.19 0.08
0.04 0.08 0.12 0.18 0.23 0.23 0.26 0.18 0.19 0.25 0.25 0.25 0.26 0.23 0.20 0.18 0.17 0.07 0.02 0.00 0.00 0.00 0.00 0.00 0.00 0.00 0.00 0.00 0.00 0.00 0.00 0.00 0.02 0.04 0.11 0.26 0.44 0.49 0.47 0.35 0.22 0.11 0.04
0.09 0.11 0.16 0.21 0.22 0.22 0.22 0.20 0.26 0.26 0.29 0.30 0.28 0.27 0.29 0.25 0.18 0.12 0.08 0.03 0.01 0.00 0.00 0.00 0.00 0.00 0.00 0.00 0.01 0.01 0.00 0.01 0.04 0.07 0.07 0.13 0.21 0.30 0.30 0.19 0.13 0.06 0.01
0.15 0.17 0.19 0.22 0.22 0.22 0.21 0.20 0.20 0.21 0.23 0.28 0.25 0.23 0.24 0.22 0.19 0.16 0.12 0.06 0.02 0.00 0.00 0.00 0.00 0.00 0.00 0.00 0.00 0.00 0.00 0.01 0.04 0.06 0.06 0.07 0.13 0.16 0.15 0.12 0.08 0.03 0.01
0.17 0.18 0.19 0.23 0.23 0.22 0.20 0.18 0.17 0.19 0.24 0.26 0.23 0.22 0.19 0.14 0.12 0.11 0.10 0.05 0.04 0.01 0.01 0.00 0.00 0.00 0.00 0.00 0.01 0.00 0.00 0.01 0.03 0.05 0.04 0.05 0.06 0.06 0.06 0.06 0.04 0.01 0.00
0.15 0.16 0.20 0.23 0.26 0.25 0.25 0.27 0.25 0.26 0.26 0.25 0.25 0.27 0.20 0.11 0.08 0.07 0.08 0.09 0.10 0.08 0.09 0.05 0.01 0.00 0.00 0.00 0.00 0.00 0.00 0.00 0.01 0.03 0.03 0.03 0.03 0.02 0.02 0.01 0.00 0.00 0.00
0.23 0.25 0.27 0.29 0.30 0.31 0.33 0.36 0.38 0.37 0.36 0.35 0.35 0.31 0.20 0.10 0.08 0.07 0.08 0.12 0.14 0.13 0.15 0.13 0.09 0.03 0.02 0.01 0.01 0.00 0.00 0.00 0.01 0.02 0.02 0.01 0.00 0.00 0.00 0.00 0.00 0.00 0.00
0.23 0.27 0.30 0.31 0.32 0.32 0.31 0.34 0.39 0.40 0.39 0.38 0.30 0.21 0.15 0.09 0.08 0.08 0.09 0.13 0.16 0.17 0.14 0.19 0.20 0.11 0.07 0.04 0.02 0.00 0.00 0.00 0.00 0.01 0.01 0.00 0.00 0.00 0.00 0.00 0.00 0.00 0.00
0.19 0.20 0.22 0.22 0.20 0.18 0.17 0.18 0.19 0.22 0.21 0.19 0.13 0.11 0.09 0.10 0.09 0.08 0.10 0.13 0.17 0.20 0.14 0.24 0.35 0.28 0.17 0.10 0.03 0.01 0.00 0.00 0.00 0.00 0.00 0.00 0.00 0.00 0.00 0.00 0.00 0.00 0.00
0.09 0.09 0.08 0.07 0.06 0.05 0.04 0.05 0.05 0.06 0.08 0.08 0.08 0.09 0.09 0.09 0.11 0.12 0.12 0.13 0.17 0.23 0.20 0.20 0.38 0.43 0.29 0.13 0.05 0.01 0.00 0.00 0.00 0.00 0.00 0.00 0.00 0.00 0.00 0.00 0.00 0.00 0.00
0.01 0.01 0.01 0.02 0.01 0.01 0.01 0.01 0.01 0.01 0.02 0.04 0.05 0.05 0.05 0.06 0.07 0.11 0.13 0.16 0.19 0.29 0.24 0.22 0.34 0.39 0.27 0.18 0.11 0.06 0.03 0.03 0.01 0.02 0.01 0.00 0.00 0.00 0.00 0.00 0.00 0.00 0.00
0.00 0.00 0.00 0.00 0.00 0.00 0.00 0.01 0.02 0.03 0.03 0.03 0.03 0.02 0.02 0.03 0.05 0.09 0.15 0.18 0.18 0.20 0.22 0.23 0.28 0.35 0.29 0.22 0.17 0.12 0.10 0.07 0.05 0.05 0.08 0.03 0.01 0.00 0.00 0.00 0.00 0.00 0.00
0.00 0.00 0.00 0.00 0.00 0.00 0.00 0.00 0.02 0.05 0.06 0.07 0.06 0.03 0.01 0.00 0.00 0.01 0.04 0.09 0.13 0.18 0.22 0.26 0.29 0.36 0.33 0.23 0.18 0.17 0.15 0.12 0.10 0.13 0.17 0.11 0.07 0.03 0.01 0.00 0.00 0.00 0.00
0.00 0.00 0.00 0.00 0.00 0.00 0.00 0.00 0.01 0.03 0.04 0.05 0.05 0.03 0.01 0.01 0.01 0.01 0.01 0.01 0.04 0.08 0.16 0.25 0.30 0.30 0.29 0.26 0.23 0.20 0.19 0.18 0.15 0.15 0.22 0.24 0.25 0.19 0.14 0.06 0.03 0.03 0.02
0.01 0.01 0.01 0.00 0.00 0.00 0.00 0.00 0.00 0.01 0.01 0.01 0.01 0.01 0.00 0.01 0.01 0.02 0.04 0.03 0.02 0.01 0.06 0.15 0.17 0.14 0.15 0.15 0.18 0.22 0.25 0.26 0.25 0.22 0.24 0.28 0.39 0.46 0.28 0.18 0.15 0.11 0.09
0.04 0.04 0.03 0.01 0.00 0.00 0.00 0.00 0.00 0.00 0.00 0.00 0.00 0.00 0.00 0.00 0.00 0.01 0.05 0.06 0.02 0.00 0.01 0.04 0.04 0.03 0.02 0.03 0.06 0.11 0.20 0.27 0.30 0.32 0.32 0.34 0.42 0.59 0.56 0.37 0.24 0.16 0.14
0.04 0.05 0.05 0.04 0.01 0.00 0.00 0.00 0.00 0.00 0.00 0.00 0.00 0.00 0.00 0.00 0.00 0.00 0.02 0.03 0.02 0.00 0.00 0.00 0.00 0.00 0.00 0.00 0.01 0.04 0.08 0.18 0.31 0.41 0.42 0.41 0.43 0.56 0.73 0.65 0.36 0.16 0.08
0.02 0.03 0.04 0.04 0.02 0.00 0.00 0.00 0.00 0.00 0.00 0.00 0.00 0.00 0.00 0.00 0.00 0.00 0.00 0.01 0.01 0.00 0.00 0.00 0.01 0.01 0.01 0.00 0.00 0.02 0.03 0.07 0.16 0.30 0.36 0.41 0.51 0.60 0.77 0.87 0.63 0.29 0.12

GEFSMA_prec_meanprec_018.txt.gz
QPF
0.00 0.00 0.00 0.00 0.00 0.00 0.00 0.00 0.00 0.01 0.01 0.01 0.01 0.02 0.02 0.02 0.02 0.02 0.02 0.01 0.00 0.01 0.01 0.02 0.01 0.01 0.01 0.01 0.01 0.01 0.02 0.03 0.06 0.08 0.11 0.13 0.12 0.09 0.04 0.01 0.00 0.00 0.00
0.00 0.00 0.00 0.00 0.00 0.00 0.00 0.00 0.00 0.01 0.01 0.01 0.01 0.01 0.01 0.01 0.01 0.01 0.01 0.01 0.00 0.00 0.01 0.01 0.01 0.01 0.01 0.01 0.01 0.01 0.01 0.02 0.03 0.04 0.05 0.07 0.10 0.11 0.09 0.02 0.00 0.00 0.00
0.00 0.00 0.00 0.00 0.00 0.00 0.01 0.01 0.02 0.02 0.02 0.02 0.01 0.02 0.02 0.01 0.00 0.01 0.01 0.00 0.00 0.00 0.01 0.01 0.01 0.01 0.01 0.01 0.01 0.01 0.02 0.01 0.02 0.02 0.02 0.03 0.06 0.09 0.10 0.06 0.01 0.01 0.01
0.00 0.00 0.00 0.01 0.01 0.01 0.02 0.02 0.04 0.03 0.02 0.02 0.02 0.02 0.01 0.01 0.01 0.01 0.00 0.00 0.00 0.00 0.01 0.02 0.01 0.01 0.01 0.01 0.01 0.01 0.02 0.02 0.02 0.02 0.02 0.03 0.05 0.07 0.08 0.06 0.03 0.02 0.02
0.01 0.01 0.02 0.02 0.02 0.02 0.03 0.05 0.07 0.06 0.04 0.04 0.03 0.03 0.04 0.03 0.02 0.02 0.02 0.01 0.01 0.00 0.00 0.00 0.01 0.01 0.01 0.01 0.01 0.02 0.02 0.02 0.02 0.03 0.04 0.05 0.08 0.09 0.08 0.06 0.05 0.04 0.04
0.02 0.02 0.03 0.04 0.05 0.06 0.05 0.06 0.09 0.08 0.05 0.05 0.04 0.03 0.04 0.03 0.03 0.05 0.05 0.05 0.03 0.01 0.01 0.00 0.00 0.00 0.00 0.00 0.01 0.02 0.02 0.02 0.02 0.02 0.03 0.07 0.12 0.15 0.12 0.08 0.07 0.08 0.07
0.03 0.03 0.04 0.07 0.08 0.07 0.06 0.07 0.11 0.11 0.07 0.08 0.06 0.03 0.02 0.02 0.05 0.09 0.14 0.15 0.10 0.05 0.02 0.01 0.00 0.00 0.00 0.00 0.00 0.01 0.01 0.02 0.02 0.02 0.03 0.05 0.11 0.18 0.14 0.11 0.13 0.15 0.15
0.03 0.04 0.04 0.05 0.06 0.06 0.06 0.07 0.11 0.11 0.08 0.10 0.09 0.08 0.04 0.03 0.07 0.17 0.29 0.30 0.19 0.08 0.03 0.02 0.01 0.00 0.00 0.00 0.00 0.00 0.01 0.01 0.02 0.02 0.02 0.03 0.08 0.15 0.16 0.17 0.20 0.24 0.25
0.01 0.01 0.02 0.02 0.04 0.05 0.05 0.05 0.08 0.10 0.07 0.09 0.11 0.11 0.09 0.06 0.04 0.06 0.10 0.16 0.18 0.14 0.07 0.03 0.01 0.00 0.00 0.00 0.00 0.00 0.00 0.00 0.01 0.01 0.01 0.03 0.06 0.10 0.17 0.24 0.30 0.34 0.36
0.01 0.00 0.01 0.01 0.02 0.04 0.05 0.06 0.10 0.11 0.12 0.13 0.15 0.14 0.12 0.12 0.09 0.03 0.03 0.08 0.12 0.14 0.11 0.06 0.02 0.00 0.00 0.00 0.00 0.00 0.00 0.00 0.00 0.00 0.00 0.02 0.05 0.11 0.18 0.32 0.40 0.40 0.36
0.00 0.01 0.01 0.02 0.03 0.05 0.08 0.09 0.12 0.14 0.15 0.15 0.16 0.15 0.13 0.13 0.13 0.11 0.05 0.02 0.03 0.05 0.07 0.05 0.03 0.01 0.00 0.00 0.00 0.00 0.00 0.00 0.00 0.00 0.00 0.01 0.04 0.09 0.17 0.30 0.39 0.39 0.31
0.00 0.01 0.01 0.03 0.05 0.08 0.11 0.14 0.14 0.14 0.14 0.14 0.13 0.14 0.15 0.16 0.16 0.17 0.12 0.08 0.04 0.02 0.03 0.04 0.04 0.04 0.03 0.02 0.01 0.00 0.00 0.00 0.00 0.00 0.00 0.00 0.02 0.05 0.12 0.21 0.30 0.35 0.25
0.00 0.01 0.01 0.03 0.06 0.10 0.13 0.14 0.14 0.13 0.13 0.12 0.13 0.14 0.16 0.17 0.21 0.29 0.37 0.36 0.24 0.11 0.06 0.06 0.06 0.07 0.06 0.04 0.01 0.01 0.00 0.00 0.00 0.00 0.00 0.00 0.01 0.04 0.07 0.13 0.20 0.22 0.15
0.00 0.00 0.01 0.03 0.05 0.07 0.10 0.11 0.12 0.12 0.12 0.12 0.13 0.16 0.18 0.18 0.19 0.27 0.39 0.46 0.42 0.23 0.11 0.07 0.07 0.06 0.06 0.04 0.03 0.02 0.01 0.00 0.00 0.00 0.00 0.01 0.02 0.03 0.05 0.08 0.11 0.09 0.05
0.00 0.00 0.01 0.04 0.07 0.09 0.12 0.13 0.14 0.15 0.14 0.13 0.14 0.16 0.16 0.15 0.14 0.18 0.30 0.36 0.36 0.25 0.10 0.04 0.04 0.05 0.04 0.04 0.04 0.02 0.01 0.00 0.00 0.00 0.01 0.01 0.02 0.03 0.04 0.05 0.05 0.03 0.01
0.00 0.01 0.02 0.04 0.07 0.11 0.14 0.17 0.18 0.19 0.21 0.22 0.23 0.21 0.19 0.17 0.15 0.17 0.21 0.23 0.23 0.16 0.07 0.03 0.03 0.05 0.06 0.07 0.05 0.02 0.00 0.00 0.00 0.00 0.01 0.01 0.02 0.03 0.03 0.02 0.02 0.01 0.00
0.00 0.00 0.01 0.02 0.04 0.07 0.10 0.12 0.14 0.16 0.19 0.21 0.21 0.21 0.20 0.19 0.17 0.14 0.13 0.13 0.14 0.12 0.05 0.04 0.05 0.04 0.05 0.05 0.05 0.02 0.00 0.00 0.00 0.00 0.01 0.00 0.00 0.01 0.01 0.01 0.00 0.00 0.00
0.00 0.00 0.00 0.00 0.01 0.02 0.03 0.05 0.07 0.09 0.11 0.12 0.14 0.16 0.16 0.14 0.11 0.09 0.08 0.07 0.08 0.09 0.06 0.05 0.08 0.07 0.04 0.03 0.04 0.03 0.01 0.00 0.00 0.00 0.00 0.00 0.00 0.00 0.00 0.00 0.00 0.00 0.00
0.00 0.00 0.00 0.00 0.00 0.00 0.00 0.01 0.02 0.03 0.04 0.06 0.08 0.08 0.06 0.04 0.03 0.02 0.02 0.02 0.03 0.05 0.05 0.05 0.08 0.08 0.04 0.04 0.05 0.03 0.01 0.01 0.00 0.00 0.00 0.00 0.00 0.00 0.00 0.00 0.00 0.00 0.00
0.00 0.00 0.00 0.00 0.00 0.00 0.00 0.00 0.00 0.01 0.02 0.04 0.04 0.03 0.01 0.01 0.00 0.00 0.00 0.00 0.01 0.03 0.05 0.06 0.10 0.11 0.07 0.07 0.07 0.05 0.03 0.02 0.01 0.01 0.01 0.00 0.00 0.00 0.00 0.00 0.00 0.00 0.00
0.00 0.00 0.00 0.00 0.00 0.00 0.00 0.00 0.00 0.01 0.02 0.02 0.02 0.01 0.00 0.00 0.00 0.00 0.00 0.00 0.00 0.02 0.04 0.07 0.11 0.15 0.14 0.12 0.11 0.09 0.06 0.04 0.02 0.01 0.01 0.01 0.01 0.02 0.01 0.01 0.01 0.00 0.00
0.00 0.00 0.00 0.00 0.00 0.00 0.00 0.00 0.00 0.00 0.00 0.00 0.00 0.00 0.00 0.00 0.00 0.00 0.00 0.00 0.00 0.00 0.03 0.07 0.11 0.16 0.18 0.20 0.20 0.16 0.11 0.06 0.03 0.01 0.01 0.01 0.02 0.03 0.02 0.01 0.01 0.01 0.01
0.00 0.00 0.00 0.00 0.00 0.00 0.00 0.00 0.00 0.00 0.00 0.00 0.00 0.00 0.00 0.00 0.00 0.00 0.00 0.00 0.00 0.00 0.01 0.03 0.04 0.05 0.08 0.13 0.19 0.19 0.14 0.09 0.06 0.03 0.01 0.01 0.01 0.02 0.02 0.02 0.02 0.02 0.01
0.01 0.01 0.01 0.00 0.00 0.00 0.00 0.00 0.00 0.00 0.00 0.00 0.00 0.00 0.00 0.00 0.00 0.00 0.00 0.00 0.00 0.00 0.00 0.00 0.00 0.01 0.01 0.03 0.06 0.10 0.10 0.07 0.04 0.03 0.02 0.01 0.02 0.02 0.02 0.02 0.02 0.02 0.01
0.00 0.01 0.01 0.00 0.00 0.00 0.00 0.00 0.00 0.00 0.00 0.00 0.00 0.00 0.00 0.00 0.00 0.00 0.00 0.00 0.00 0.00 0.00 0.00 0.00 0.00 0.00 0.00 0.01 0.02 0.02 0.03 0.03 0.03 0.02 0.01 0.02 0.03 0.04 0.05 0.07 0.05 0.03
0.00 0.00 0.01 0.00 0.00 0.00 0.00 0.00 0.00 0.00 0.00 0.00 0.00 0.00 0.00 0.00 0.00 0.00 0.00 0.00 0.00 0.00 0.00 0.00 0.00 0.00 0.00 0.00 0.00 0.01 0.01 0.01 0.01 0.02 0.02 0.02 0.03 0.06 0.09 0.16 0.19 0.17 0.13

GEFSMA_prec_meanprec_024.txt.gz
QPF
0.00 0.00 0.00 0.00 0.00 0.00 0.00 0.00 0.00 0.00 0.00 0.00 0.00 0.00 0.00 0.00 0.00 0.00 0.00 0.00 0.00 0.01 0.05 0.06 0.05 0.04 0.04 0.03 0.02 0.02 0.01 0.01 0.02 0.03 0.03 0.04 0.06 0.10 0.13 0.11 0.06 0.01 0.00
0.00 0.00 0.00 0.00 0.00 0.00 0.00 0.00 0.00 0.00 0.00 0.00 0.00 0.01 0.00 0.00 0.00 0.00 0.00 0.00 0.00 0.01 0.02 0.04 0.05 0.06 0.06 0.05 0.04 0.03 0.02 0.02 0.02 0.02 0.03 0.03 0.05 0.06 0.09 0.09 0.05 0.01 0.00
0.00 0.00 0.00 0.00 0.00 0.00 0.00 0.00 0.00 0.00 0.00 0.01 0.01 0.01 0.00 0.00 0.00 0.00 0.00 0.00 0.00 0.01 0.02 0.03 0.04 0.05 0.05 0.05 0.04 0.03 0.02 0.02 0.01 0.01 0.01 0.02 0.04 0.05 0.07 0.09 0.06 0.02 0.00
0.02 0.01 0.01 0.01 0.01 0.00 0.00 0.00 0.00 0.01 0.01 0.02 0.01 0.01 0.01 0.01 0.00 0.01 0.00 0.00 0.00 0.00 0.01 0.02 0.04 0.04 0.05 0.04 0.04 0.03 0.02 0.02 0.02 0.01 0.02 0.02 0.03 0.05 0.08 0.09 0.07 0.02 0.01
0.04 0.03 0.01 0.01 0.00 0.01 0.01 0.01 0.01 0.02 0.02 0.02 0.04 0.03 0.02 0.01 0.01 0.01 0.01 0.01 0.01 0.01 0.00 0.00 0.01 0.03 0.04 0.04 0.04 0.04 0.03 0.03 0.02 0.02 0.02 0.03 0.04 0.07 0.11 0.12 0.08 0.03 0.01
0.06 0.05 0.03 0.02 0.01 0.01 0.01 0.01 0.01 0.02 0.02 0.03 0.04 0.03 0.02 0.01 0.00 0.01 0.01 0.02 0.01 0.01 0.01 0.01 0.01 0.01 0.02 0.03 0.04 0.05 0.04 0.03 0.02 0.02 0.03 0.03 0.03 0.06 0.11 0.12 0.08 0.04 0.02
0.08 0.08 0.07 0.04 0.02 0.01 0.01 0.01 0.01 0.01 0.01 0.03 0.04 0.02 0.01 0.00 0.00 0.00 0.01 0.01 0.02 0.02 0.02 0.02 0.02 0.01 0.01 0.01 0.01 0.03 0.05 0.04 0.03 0.02 0.02 0.02 0.02 0.03 0.05 0.09 0.07 0.04 0.04
0.11 0.10 0.07 0.04 0.03 0.01 0.01 0.01 0.01 0.01 0.01 0.03 0.05 0.03 0.01 0.00 0.00 0.00 0.00 0.01 0.02 0.02 0.03 0.04 0.04 0.02 0.02 0.01 0.00 0.00 0.01 0.03 0.04 0.03 0.02 0.02 0.02 0.02 0.03 0.07 0.06 0.05 0.05
0.13 0.11 0.07 0.04 0.02 0.01 0.00 0.00 0.01 0.01 0.01 0.02 0.06 0.09 0.04 0.01 0.00 0.00 0.00 0.01 0.01 0.02 0.05 0.07 0.06 0.04 0.02 0.01 0.00 0.00 0.00 0.00 0.01 0.02 0.02 0.02 0.01 0.01 0.02 0.05 0.07 0.06 0.07
0.11 0.06 0.03 0.02 0.01 0.00 0.00 0.00 0.00 0.01 0.03 0.02 0.04 0.08 0.10 0.06 0.03 0.01 0.00 0.01 0.01 0.02 0.04 0.06 0.07 0.05 0.03 0.02 0.01 0.01 0.00 0.00 0.00 0.01 0.01 0.01 0.01 0.01 0.02 0.05 0.10 0.11 0.09
0.06 0.03 0.01 0.01 0.00 0.00 0.00 0.00 0.01 0.02 0.04 0.04 0.05 0.07 0.10 0.11 0.10 0.06 0.02 0.02 0.02 0.02 0.02 0.03 0.05 0.04 0.03 0.02 0.02 0.01 0.01 0.00 0.00 0.00 0.00 0.00 0.00 0.01 0.02 0.06 0.13 0.15 0.13
0.02 0.01 0.00 0.00 0.00 0.00 0.00 0.00 0.01 0.02 0.03 0.06 0.08 0.10 0.11 0.11 0.11 0.11 0.07 0.05 0.05 0.04 0.03 0.02 0.02 0.03 0.03 0.04 0.03 0.03 0.02 0.01 0.00 0.00 0.00 0.00 0.00 0.00 0.02 0.06 0.13 0.17 0.18
0.01 0.00 0.00 0.00 0.00 0.00 0.00 0.00 0.01 0.01 0.03 0.05 0.08 0.11 0.14 0.15 0.14 0.13 0.10 0.07 0.06 0.06 0.04 0.03 0.02 0.03 0.05 0.06 0.05 0.05 0.03 0.01 0.00 0.00 0.00 0.00 0.00 0.00 0.02 0.05 0.11 0.17 0.20
0.00 0.00 0.00 0.00 0.00 0.00 0.00 0.00 0.01 0.02 0.04 0.06 0.09 0.13 0.16 0.19 0.19 0.17 0.15 0.13 0.11 0.11 0.09 0.06 0.04 0.03 0.04 0.05 0.05 0.04 0.02 0.02 0.01 0.00 0.00 0.00 0.00 0.01 0.02 0.04 0.09 0.14 0.18
0.00 0.00 0.00 0.00 0.00 0.00 0.00 0.01 0.02 0.04 0.07 0.09 0.11 0.15 0.17 0.19 0.19 0.19 0.20 0.21 0.20 0.19 0.14 0.09 0.06 0.05 0.05 0.05 0.04 0.03 0.03 0.01 0.00 0.00 0.00 0.00 0.00 0.01 0.02 0.04 0.08 0.10 0.12
0.00 0.00 0.00 0.00 0.00 0.00 0.00 0.01 0.02 0.03 0.06 0.10 0.15 0.20 0.22 0.24 0.24 0.24 0.24 0.23 0.22 0.20 0.16 0.09 0.06 0.05 0.05 0.05 0.05 0.04 0.03 0.02 0.00 0.00 0.00 0.00 0.00 0.01 0.03 0.05 0.07 0.08 0.07
0.00 0.00 0.00 0.00 0.00 0.00 0.00 0.00 0.00 0.01 0.04 0.06 0.10 0.14 0.19 0.23 0.24 0.25 0.24 0.22 0.21 0.18 0.13 0.08 0.05 0.05 0.05 0.06 0.06 0.06 0.04 0.02 0.01 0.00 0.00 0.01 0.02 0.03 0.04 0.05 0.06 0.05 0.04
0.00 0.00 0.00 0.00 0.00 0.00 0.00 0.00 0.00 0.01 0.02 0.03 0.06 0.09 0.12 0.15 0.16 0.16 0.16 0.17 0.16 0.15 0.11 0.08 0.05 0.04 0.05 0.07 0.10 0.10 0.07 0.03 0.02 0.01 0.01 0.01 0.01 0.03 0.04 0.05 0.04 0.03 0.02
0.00 0.00 0.00 0.00 0.00 0.00 0.00 0.00 0.00 0.00 0.01 0.01 0.02 0.04 0.05 0.06 0.07 0.06 0.05 0.05 0.06 0.06 0.06 0.05 0.05 0.04 0.05 0.07 0.11 0.11 0.09 0.06 0.03 0.01 0.01 0.01 0.01 0.01 0.02 0.03 0.03 0.02 0.01
0.00 0.00 0.00 0.00 0.00 0.00 0.00 0.00 0.00 0.00 0.00 0.00 0.01 0.01 0.01 0.02 0.02 0.01 0.01 0.01 0.02 0.03 0.04 0.04 0.04 0.04 0.07 0.09 0.13 0.14 0.12 0.08 0.05 0.02 0.02 0.01 0.01 0.00 0.00 0.00 0.01 0.01 0.00
0.00 0.00 0.00 0.00 0.00 0.00 0.00 0.00 0.00 0.00 0.00 0.00 0.00 0.00 0.00 0.00 0.00 0.00 0.00 0.00 0.00 0.01 0.01 0.02 0.02 0.03 0.05 0.08 0.12 0.15 0.15 0.13 0.08 0.05 0.03 0.02 0.01 0.00 0.00 0.00 0.00 0.00 0.00
0.00 0.00 0.00 0.00 0.00 0.00 0.00 0.00 0.00 0.00 0.00 0.00 0.00 0.00 0.00 0.00 0.00 0.00 0.00 0.00 0.00 0.00 0.00 0.00 0.01 0.02 0.02 0.04 0.08 0.12 0.17 0.17 0.15 0.10 0.06 0.04 0.02 0.02 0.02 0.01 0.01 0.00 0.00
0.00 0.00 0.00 0.00 0.00 0.00 0.00 0.00 0.00 0.00 0.00 0.00 0.00 0.00 0.00 0.00 0.00 0.00 0.00 0.00 0.00 0.00 0.00 0.00 0.00 0.01 0.02 0.04 0.08 0.15 0.21 0.25 0.31 0.32 0.23 0.13 0.07 0.04 0.03 0.02 0.02 0.02 0.01
0.00 0.00 0.00 0.00 0.00 0.00 0.00 0.00 0.00 0.00 0.00 0.00 0.00 0.00 0.00 0.00 0.00 0.00 0.00 0.00 0.00 0.00 0.00 0.00 0.00 0.00 0.01 0.03 0.07 0.13 0.22 0.30 0.36 0.38 0.36 0.31 0.20 0.11 0.06 0.04 0.04 0.03 0.02
0.00 0.00 0.00 0.00 0.00 0.00 0.00 0.00 0.00 0.00 0.00 0.00 0.00 0.00 0.00 0.00 0.00 0.00 0.00 0.00 0.00 0.00 0.00 0.00 0.00 0.00 0.00 0.01 0.02 0.05 0.11 0.20 0.31 0.39 0.37 0.30 0.24 0.16 0.10 0.06 0.05 0.04 0.03
0.00 0.00 0.00 0.00 0.00 0.00 0.00 0.00 0.00 0.00 0.00 0.00 0.00 0.00 0.00 0.00 0.00 0.00 0.00 0.00 0.00 0.00 0.00 0.00 0.00 0.00 0.00 0.00 0.00 0.01 0.02 0.05 0.10 0.19 0.27 0.28 0.22 0.16 0.12 0.08 0.06 0.04 0.04

GEFSMA_prec_meanprec_030.txt.gz
QPF
0.00 0.00 0.00 0.00 0.01 0.01 0.03 0.06 0.06 0.06 0.05 0.03 0.03 0.03 0.04 0.05 0.06 0.08 0.06 0.03 0.03 0.05 0.07 0.08 0.07 0.06 0.05 0.03 0.03 0.02 0.02 0.02 0.02 0.01 0.01 0.01 0.02 0.02 0.02 0.03 0.05 0.05 0.04
0.00 0.01 0.01 0.02 0.02 0.03 0.04 0.05 0.04 0.05 0.04 0.03 0.02 0.02 0.02 0.02 0.02 0.03 0.04 0.03 0.01 0.01 0.02 0.05 0.06 0.07 0.05 0.03 0.02 0.01 0.01 0.01 0.01 0.01 0.01 0.01 0.02 0.03 0.03 0.04 0.04 0.04 0.03
0.03 0.04 0.04 0.03 0.04 0.05 0.08 0.06 0.05 0.04 0.03 0.03 0.01 0.01 0.01 0.01 0.00 0.00 0.01 0.02 0.00 0.00 0.00 0.02 0.04 0.05 0.04 0.03 0.02 0.01 0.01 0.01 0.01 0.00 0.00 0.01 0.01 0.01 0.02 0.03 0.04 0.04 0.02
0.05 0.09 0.09 0.08 0.11 0.10 0.08 0.10 0.08 0.07 0.05 0.04 0.02 0.01 0.01 0.01 0.00 0.00 0.00 0.00 0.01 0.00 0.01 0.01 0.03 0.04 0.04 0.04 0.03 0.02 0.01 0.01 0.01 0.01 0.01 0.01 0.01 0.01 0.01 0.02 0.04 0.04 0.02
0.10 0.14 0.14 0.15 0.16 0.13 0.12 0.09 0.08 0.09 0.06 0.06 0.04 0.03 0.01 0.00 0.00 0.00 0.00 0.00 0.00 0.01 0.01 0.01 0.01 0.02 0.03 0.04 0.03 0.03 0.02 0.02 0.01 0.01 0.01 0.01 0.01 0.01 0.01 0.01 0.03 0.03 0.02
0.18 0.19 0.19 0.19 0.16 0.15 0.15 0.14 0.11 0.10 0.07 0.08 0.04 0.02 0.01 0.00 0.00 0.00 0.00 0.00 0.00 0.00 0.01 0.01 0.03 0.02 0.01 0.02 0.03 0.03 0.03 0.02 0.02 0.01 0.01 0.02 0.02 0.02 0.01 0.01 0.02 0.03 0.02
0.24 0.24 0.22 0.21 0.18 0.16 0.15 0.14 0.11 0.08 0.07 0.08 0.05 0.02 0.01 0.00 0.00 0.00 0.00 0.00 0.00 0.00 0.00 0.02 0.03 0.03 0.03 0.01 0.01 0.02 0.03 0.03 0.03 0.02 0.02 0.02 0.02 0.02 0.01 0.01 0.01 0.01 0.02
0.27 0.26 0.24 0.20 0.15 0.11 0.09 0.07 0.05 0.04 0.03 0.05 0.05 0.04 0.01 0.00 0.00 0.00 0.00 0.00 0.00 0.00 0.01 0.02 0.03 0.04 0.02 0.01 0.02 0.01 0.01 0.03 0.04 0.03 0.02 0.01 0.01 0.01 0.01 0.01 0.01 0.01 0.01
0.31 0.26 0.22 0.15 0.10 0.07 0.05 0.03 0.02 0.02 0.01 0.02 0.04 0.07 0.05 0.02 0.01 0.00 0.01 0.01 0.02 0.02 0.01 0.02 0.02 0.03 0.03 0.02 0.03 0.03 0.02 0.01 0.01 0.02 0.03 0.02 0.01 0.01 0.01 0.01 0.01 0.01 0.01
0.33 0.24 0.18 0.14 0.09 0.06 0.03 0.02 0.01 0.01 0.02 0.02 0.03 0.06 0.09 0.10 0.10 0.04 0.02 0.03 0.05 0.04 0.03 0.02 0.02 0.02 0.03 0.03 0.04 0.06 0.06 0.03 0.02 0.01 0.02 0.02 0.02 0.01 0.00 0.01 0.01 0.02 0.02
0.36 0.28 0.18 0.11 0.07 0.04 0.02 0.01 0.01 0.01 0.02 0.03 0.04 0.06 0.07 0.11 0.13 0.12 0.06 0.08 0.09 0.06 0.05 0.04 0.03 0.04 0.04 0.03 0.03 0.04 0.06 0.05 0.03 0.02 0.01 0.01 0.01 0.00 0.00 0.01 0.01 0.03 0.04
0.28 0.22 0.14 0.08 0.05 0.03 0.02 0.01 0.01 0.01 0.02 0.02 0.04 0.05 0.07 0.09 0.12 0.16 0.15 0.15 0.16 0.13 0.13 0.10 0.06 0.06 0.06 0.04 0.04 0.03 0.04 0.04 0.04 0.03 0.02 0.01 0.00 0.00 0.00 0.00 0.01 0.04 0.07
0.22 0.18 0.13 0.07 0.04 0.02 0.01 0.01 0.01 0.01 0.01 0.02 0.02 0.03 0.06 0.09 0.11 0.15 0.18 0.18 0.17 0.15 0.14 0.13 0.10 0.09 0.06 0.06 0.07 0.04 0.03 0.03 0.03 0.03 0.02 0.01 0.01 0.00 0.00 0.00 0.02 0.05 0.10
0.11 0.08 0.05 0.04 0.02 0.01 0.01 0.01 0.01 0.01 0.01 0.01 0.01 0.02 0.03 0.04 0.06 0.09 0.13 0.15 0.14 0.16 0.17 0.17 0.13 0.10 0.08 0.07 0.06 0.03 0.02 0.02 0.02 0.01 0.01 0.01 0.00 0.00 0.00 0.00 0.01 0.04 0.08
0.06 0.04 0.03 0.02 0.01 0.01 0.01 0.01 0.01 0.01 0.01 0.02 0.02 0.02 0.03 0.04 0.04 0.05 0.07 0.09 0.11 0.11 0.11 0.13 0.12 0.10 0.08 0.07 0.05 0.03 0.04 0.03 0.01 0.01 0.00 0.00 0.00 0.00 0.00 0.00 0.00 0.02 0.05
0.03 0.02 0.01 0.01 0.01 0.01 0.01 0.01 0.01 0.01 0.02 0.03 0.03 0.04 0.05 0.05 0.05 0.05 0.06 0.08 0.11 0.12 0.10 0.10 0.10 0.08 0.07 0.05 0.04 0.04 0.05 0.04 0.02 0.01 0.01 0.00 0.00 0.00 0.00 0.01 0.01 0.02 0.05
0.02 0.02 0.01 0.01 0.01 0.01 0.00 0.00 0.01 0.01 0.01 0.02 0.02 0.03 0.04 0.04 0.05 0.04 0.05 0.06 0.08 0.09 0.10 0.11 0.12 0.11 0.12 0.12 0.10 0.08 0.06 0.05 0.05 0.03 0.02 0.01 0.01 0.01 0.01 0.02 0.03 0.04 0.07
0.02 0.01 0.01 0.01 0.00 0.00 0.00 0.01 0.01 0.01 0.01 0.01 0.01 0.02 0.02 0.02 0.02 0.02 0.02 0.03 0.05 0.07 0.08 0.10 0.12 0.14 0.15 0.14 0.13 0.12 0.11 0.10 0.08 0.06 0.04 0.03 0.03 0.03 0.03 0.05 0.07 0.10 0.11
0.01 0.01 0.01 0.00 0.00 0.00 0.01 0.01 0.01 0.01 0.01 0.01 0.01 0.01 0.00 0.00 0.01 0.01 0.02 0.02 0.03 0.05 0.09 0.12 0.14 0.17 0.17 0.16 0.15 0.14 0.14 0.15 0.13 0.11 0.08 0.05 0.04 0.04 0.05 0.07 0.11 0.17 0.17
0.01 0.01 0.01 0.00 0.00 0.00 0.01 0.01 0.00 0.00 0.01 0.00 0.00 0.00 0.00 0.00 0.00 0.00 0.01 0.01 0.02 0.04 0.07 0.10 0.12 0.14 0.15 0.16 0.15 0.17 0.19 0.20 0.17 0.15 0.12 0.08 0.07 0.05 0.06 0.07 0.10 0.18 0.23
0.01 0.00 0.00 0.00 0.00 0.00 0.00 0.00 0.00 0.00 0.00 0.00 0.00 0.00 0.00 0.00 0.00 0.00 0.00 0.00 0.01 0.02 0.03 0.04 0.05 0.05 0.06 0.07 0.09 0.14 0.19 0.23 0.22 0.20 0.19 0.15 0.10 0.06 0.05 0.05 0.08 0.14 0.23
0.00 0.00 0.00 0.00 0.00 0.00 0.00 0.00 0.00 0.00 0.00 0.00 0.00 0.00 0.00 0.00 0.00 0.00 0.00 0.00 0.00 0.00 0.01 0.01 0.01 0.01 0.02 0.03 0.05 0.10 0.16 0.20 0.28 0.31 0.31 0.27 0.19 0.12 0.09 0.07 0.05 0.07 0.11
0.00 0.00 0.00 0.00 0.00 0.00 0.00 0.00 0.00 0.00 0.00 0.00 0.00 0.00 0.00 0.00 0.00 0.00 0.00 0.00 0.00 0.00 0.00 0.00 0.00 0.00 0.00 0.01 0.03 0.06 0.12 0.19 0.28 0.38 0.47 0.51 0.42 0.28 0.17 0.11 0.07 0.03 0.03
0.00 0.00 0.00 0.00 0.00 0.00 0.00 0.00 0.00 0.00 0.00 0.00 0.00 0.00 0.00 0.00 0.00 0.00 0.00 0.00 0.00 0.00 0.00 0.00 0.00 0.00 0.00 0.01 0.02 0.04 0.07 0.14 0.23 0.33 0.44 0.56 0.54 0.44 0.31 0.20 0.12 0.05 0.03
0.01 0.00 0.00 0.00 0.00 0.00 0.00 0.00 0.00 0.00 0.00 0.00 0.00 0.00 0.00 0.00 0.00 0.00 0.00 0.00 0.00 0.00 0.00 0.00 0.00 0.00 0.00 0.00 0.01 0.01 0.03 0.06 0.12 0.22 0.37 0.56 0.62 0.51 0.44 0.37 0.25 0.16 0.09
0.01 0.00 0.00 0.00 0.00 0.00 0.00 0.00 0.00 0.00 0.00 0.00 0.00 0.00 0.00 0.00 0.00 0.00 0.00 0.00 0.00 0.00 0.00 0.00 0.00 0.00 0.00 0.00 0.00 0.01 0.01 0.03 0.06 0.10 0.20 0.37 0.52 0.47 0.46 0.46 0.43 0.32 0.21

GEFSMA_prec_meanprec_036.txt.gz
QPF
0.01 0.01 0.00 0.00 0.00 0.01 0.01 0.03 0.01 0.02 0.02 0.01 0.01 0.01 0.00 0.00 0.00 0.01 0.01 0.00 0.00 0.00 0.00 0.00 0.00 0.00 0.00 0.01 0.01 0.00 0.00 0.01 0.01 0.00 0.00 0.00 0.00 0.01 0.01 0.02 0.03 0.04 0.04
0.01 0.02 0.02 0.03 0.02 0.02 0.03 0.04 0.02 0.05 0.03 0.03 0.02 0.00 0.00 0.00 0.00 0.00 0.00 0.01 0.00 0.00 0.00 0.00 0.01 0.01 0.01 0.01 0.00 0.00 0.00 0.00 0.00 0.00 0.00 0.00 0.00 0.01 0.01 0.02 0.03 0.05 0.04
0.03 0.04 0.05 0.06 0.06 0.06 0.06 0.06 0.05 0.06 0.06 0.05 0.03 0.02 0.01 0.00 0.00 0.00 0.00 0.00 0.00 0.00 0.00 0.01 0.02 0.02 0.02 0.01 0.01 0.01 0.00 0.00 0.00 0.00 0.00 0.00 0.00 0.00 0.01 0.01 0.02 0.03 0.03
0.06 0.12 0.12 0.10 0.12 0.10 0.10 0.17 0.14 0.14 0.15 0.11 0.07 0.03 0.01 0.01 0.00 0.00 0.00 0.00 0.00 0.00 0.00 0.01 0.03 0.02 0.02 0.02 0.02 0.02 0.01 0.00 0.00 0.00 0.00 0.00 0.00 0.00 0.00 0.00 0.01 0.01 0.02
0.10 0.17 0.16 0.19 0.18 0.19 0.20 0.16 0.20 0.25 0.24 0.20 0.11 0.04 0.02 0.01 0.01 0.00 0.00 0.00 0.00 0.00 0.00 0.01 0.01 0.01 0.02 0.02 0.03 0.02 0.01 0.01 0.00 0.00 0.00 0.00 0.00 0.00 0.00 0.00 0.00 0.00 0.01
0.17 0.20 0.20 0.21 0.23 0.26 0.24 0.23 0.22 0.22 0.20 0.19 0.11 0.04 0.02 0.01 0.01 0.00 0.00 0.00 0.00 0.00 0.00 0.00 0.02 0.03 0.03 0.03 0.03 0.03 0.03 0.02 0.01 0.00 0.00 0.00 0.00 0.00 0.00 0.00 0.00 0.01 0.01
0.18 0.20 0.23 0.26 0.23 0.23 0.22 0.22 0.23 0.22 0.20 0.22 0.16 0.08 0.03 0.01 0.00 0.00 0.00 0.00 0.00 0.00 0.00 0.00 0.02 0.04 0.07 0.05 0.03 0.04 0.05 0.04 0.03 0.01 0.01 0.01 0.01 0.01 0.00 0.00 0.00 0.00 0.01
0.21 0.21 0.22 0.22 0.21 0.19 0.19 0.18 0.20 0.20 0.18 0.20 0.18 0.13 0.07 0.02 0.01 0.00 0.00 0.00 0.00 0.00 0.00 0.00 0.01 0.04 0.06 0.09 0.11 0.06 0.05 0.06 0.06 0.05 0.03 0.02 0.01 0.01 0.01 0.00 0.00 0.00 0.00
0.25 0.23 0.20 0.19 0.18 0.17 0.15 0.14 0.14 0.15 0.14 0.14 0.15 0.16 0.11 0.06 0.03 0.00 0.00 0.01 0.01 0.01 0.00 0.01 0.01 0.04 0.06 0.11 0.15 0.12 0.05 0.03 0.04 0.06 0.07 0.04 0.03 0.01 0.01 0.01 0.01 0.01 0.01
0.24 0.22 0.17 0.14 0.13 0.12 0.12 0.11 0.13 0.15 0.16 0.14 0.14 0.16 0.15 0.12 0.08 0.02 0.00 0.01 0.03 0.04 0.03 0.03 0.03 0.04 0.05 0.08 0.16 0.20 0.15 0.07 0.05 0.05 0.07 0.06 0.05 0.03 0.01 0.02 0.02 0.02 0.02
0.18 0.17 0.16 0.13 0.11 0.10 0.11 0.11 0.13 0.13 0.14 0.13 0.13 0.13 0.14 0.14 0.15 0.10 0.03 0.03 0.05 0.07 0.07 0.06 0.07 0.08 0.11 0.14 0.23 0.26 0.29 0.18 0.10 0.06 0.05 0.05 0.05 0.04 0.03 0.02 0.04 0.06 0.06
0.12 0.13 0.14 0.12 0.11 0.10 0.10 0.10 0.11 0.12 0.13 0.13 0.12 0.11 0.10 0.10 0.11 0.12 0.06 0.06 0.07 0.09 0.12 0.13 0.15 0.16 0.16 0.17 0.24 0.35 0.33 0.20 0.11 0.08 0.06 0.04 0.04 0.03 0.03 0.03 0.05 0.07 0.09
0.11 0.10 0.10 0.09 0.10 0.11 0.11 0.12 0.12 0.13 0.13 0.12 0.11 0.10 0.09 0.09 0.09 0.10 0.08 0.06 0.07 0.09 0.13 0.17 0.17 0.17 0.17 0.20 0.25 0.25 0.19 0.14 0.08 0.06 0.06 0.06 0.05 0.04 0.02 0.02 0.02 0.04 0.06
0.13 0.13 0.13 0.12 0.11 0.10 0.08 0.09 0.09 0.10 0.09 0.08 0.07 0.07 0.08 0.08 0.07 0.07 0.06 0.05 0.05 0.07 0.11 0.12 0.12 0.11 0.13 0.16 0.17 0.12 0.09 0.07 0.05 0.04 0.04 0.04 0.04 0.04 0.03 0.03 0.02 0.02 0.02
0.18 0.17 0.15 0.13 0.12 0.10 0.08 0.08 0.09 0.09 0.08 0.08 0.08 0.09 0.10 0.09 0.08 0.07 0.05 0.04 0.03 0.03 0.05 0.06 0.05 0.04 0.05 0.07 0.08 0.07 0.12 0.09 0.04 0.02 0.02 0.02 0.02 0.02 0.02 0.02 0.01 0.01 0.01
0.19 0.19 0.17 0.16 0.14 0.12 0.10 0.09 0.10 0.10 0.09 0.10 0.10 0.11 0.11 0.10 0.08 0.07 0.06 0.04 0.04 0.04 0.04 0.04 0.04 0.04 0.04 0.04 0.04 0.05 0.09 0.07 0.04 0.02 0.02 0.01 0.01 0.01 0.01 0.01 0.01 0.01 0.01
0.24 0.23 0.20 0.18 0.17 0.13 0.11 0.10 0.10 0.10 0.10 0.12 0.12 0.11 0.09 0.06 0.06 0.04 0.03 0.04 0.04 0.04 0.04 0.05 0.06 0.07 0.07 0.07 0.07 0.09 0.10 0.09 0.08 0.05 0.03 0.02 0.01 0.01 0.01 0.01 0.01 0.01 0.01
0.24 0.22 0.19 0.16 0.14 0.12 0.11 0.10 0.09 0.10 0.11 0.12 0.10 0.08 0.05 0.03 0.02 0.02 0.02 0.03 0.04 0.05 0.05 0.07 0.08 0.08 0.09 0.09 0.09 0.10 0.09 0.10 0.12 0.10 0.06 0.04 0.03 0.02 0.02 0.02 0.02 0.02 0.03
0.17 0.15 0.14 0.12 0.10 0.08 0.08 0.10 0.10 0.11 0.11 0.09 0.06 0.03 0.01 0.01 0.01 0.01 0.02 0.02 0.03 0.04 0.06 0.08 0.08 0.08 0.09 0.08 0.08 0.10 0.11 0.15 0.15 0.12 0.09 0.06 0.04 0.03 0.03 0.02 0.03 0.05 0.07
0.12 0.11 0.12 0.11 0.10 0.10 0.11 0.11 0.11 0.09 0.08 0.04 0.02 0.00 0.00 0.00 0.00 0.00 0.01 0.01 0.02 0.03 0.04 0.04 0.04 0.04 0.04 0.04 0.05 0.07 0.10 0.15 0.16 0.13 0.12 0.10 0.09 0.07 0.05 0.04 0.04 0.06 0.12
0.10 0.10 0.11 0.12 0.12 0.12 0.10 0.10 0.11 0.07 0.04 0.02 0.00 0.00 0.00 0.00 0.00 0.00 0.00 0.00 0.00 0.01 0.01 0.01 0.01 0.01 0.01 0.01 0.02 0.04 0.06 0.09 0.13 0.12 0.12 0.13 0.14 0.12 0.10 0.08 0.08 0.10 0.18
0.07 0.07 0.08 0.08 0.06 0.04 0.03 0.03 0.05 0.04 0.02 0.01 0.01 0.00 0.00 0.00 0.00 0.00 0.00 0.00 0.00 0.00 0.00 0.01 0.00 0.00 0.00 0.01 0.02 0.03 0.03 0.04 0.06 0.09 0.12 0.16 0.17 0.19 0.17 0.13 0.11 0.11 0.19
0.05 0.06 0.05 0.03 0.02 0.01 0.01 0.01 0.01 0.02 0.01 0.01 0.01 0.01 0.00 0.00 0.00 0.00 0.00 0.00 0.00 0.00 0.00 0.00 0.00 0.00 0.00 0.00 0.02 0.04 0.04 0.05 0.05 0.06 0.08 0.12 0.15 0.20 0.21 0.16 0.11 0.11 0.15
0.06 0.06 0.04 0.02 0.00 0.00 0.00 0.00 0.00 0.01 0.01 0.00 0.00 0.00 0.00 0.00 0.00 0.00 0.00 0.00 0.00 0.00 0.00 0.00 0.00 0.00 0.00 0.00 0.01 0.03 0.05 0.07 0.08 0.06 0.06 0.09 0.12 0.15 0.15 0.13 0.08 0.08 0.10
0.06 0.06 0.04 0.01 0.00 0.00 0.00 0.00 0.00 0.01 0.00 0.00 0.00 0.00 0.00 0.00 0.00 0.00 0.00 0.00 0.00 0.00 0.00 0.00 0.00 0.00 0.00 0.00 0.00 0.01 0.02 0.05 0.07 0.07 0.05 0.07 0.11 0.14 0.16 0.16 0.11 0.08 0.07
0.07 0.05 0.03 0.02 0.01 0.00 0.00 0.00 0.00 0.00 0.00 0.00 0.00 0.00 0.00 0.00 0.00 0.00 0.00 0.00 0.00 0.00 0.00 0.00 0.00 0.00 0.00 0.00 0.00 0.00 0.01 0.01 0.04 0.06 0.05 0.06 0.08 0.12 0.16 0.18 0.16 0.13 0.11